Location: Lac Echo
(45.9375°N, 75.4580°W)
Time: 01:50:37
(UTC-04:00)

Amateur Radio Satellites - All Passes

Search period start: 04 September 2015 01:20
Search period end: 05 September 2015 01:20
Location: Lac Echo, 45.9375°N, 75.4580°W

Satellite Date Start Highest point End Downlink Frequencies (MHz)
Time Altitude Azimuth
QB50P1 04 Sep 01:22:22 01:26:01 27° 293° (WNW) 01:29:35 145.935-145.965
RS-15 04 Sep 01:35:10 01:46:52 68° 241° (WSW) 01:58:54 29.354- 29.394
AIST 2 04 Sep 01:36:33 01:39:45 21° 246° (WSW) 01:42:49 435.215
SWISSCUBE 04 Sep 01:38:47 01:43:29 63° 72° (ENE) 01:48:12 437.505
CUSAT 1 04 Sep 01:40:38 01:44:15 20° 303° (WNW) 01:48:27 437.405
GONETS M04 04 Sep 01:41:06 01:47:51 27° 82° (E) 01:54:54
PCSat 04 Sep 01:48:54 01:54:18 76° 120° (ESE) 01:59:46 145.827
AUBIESAT-1 04 Sep 01:52:05 01:53:17 11° 307° (NW) 01:54:18 437.475
SO-50 04 Sep 01:54:29 01:59:08 44° 315° (NW) 02:03:54 436.795
TISAT 1 04 Sep 02:02:34 02:05:12 15° 271° (W) 02:07:41 437.305
ITAMSAT 1 04 Sep 02:12:56 02:14:46 12° 85° (E) 02:16:55 435.822/435.867
Gurwin Techsat 1B 04 Sep 02:14:04 02:17:15 16° 88° (E) 02:20:39 435.225
BUGSAT 1 04 Sep 02:17:28 02:19:35 13° 299° (WNW) 02:21:33 437.445
ITUPSAT 1 04 Sep 02:19:04 02:23:48 61° 258° (WSW) 02:28:33 437.325
Cosmos 2504 04 Sep 02:25:36 02:29:35 13° 312° (NW) 02:33:07 435.465 / 435.565
STARS 04 Sep 02:37:56 02:41:30 25° 65° (ENE) 02:45:08 437.465
Oscar 19 04 Sep 02:43:20 02:48:35 86° 104° (ESE) 02:53:47 437.125/150
BEESAT 04 Sep 02:50:43 02:54:56 30° 265° (W) 02:59:08 436.000
JAS-2 04 Sep 02:52:16 02:57:15 22° 85° (E) 03:02:01 435.910
KKS-1 04 Sep 03:04:25 03:08:52 72° 73° (ENE) 03:13:21 437.445
VERMONT LUNAR 04 Sep 03:07:43 03:09:53 18° 164° (SSE) 03:12:05 437.305
SWISSCUBE 04 Sep 03:18:47 03:21:49 16° 271° (W) 03:24:42 437.505
O/OREOS (USA 219) 04 Sep 03:27:23 03:31:19 27° 54° (NE) 03:35:15 437.305
PCSat 04 Sep 03:33:59 03:38:21 24° 321° (NW) 03:42:39 145.827
GONETS M04 04 Sep 03:35:19 03:44:00 72° 282° (WNW) 03:52:46
SO-50 04 Sep 03:38:28 03:40:58 14° 337° (NNW) 03:43:25 436.795
MOZHAYETS 4 04 Sep 03:42:46 03:46:41 29° 67° (ENE) 03:50:40
ITAMSAT 1 04 Sep 03:49:55 03:55:08 88° 101° (E) 04:00:21 435.822/435.867
RS-15 04 Sep 03:50:13 03:57:28 17° 261° (W) 04:03:56 29.354- 29.394
Gurwin Techsat 1B 04 Sep 03:52:34 03:57:53 73° 287° (WNW) 04:03:10 435.225
Cosmos 2499 04 Sep 03:55:59 04:04:09 52° 90° (E) 04:12:41 435.465 / 435.565
AO-7 04 Sep 04:04:22 04:11:18 30° 93° (E) 04:18:24 29.400- 29.500
HORYU 2 04 Sep 04:06:10 04:09:07 18° 90° (E) 04:12:12 437.375
STARS 04 Sep 04:13:38 04:17:46 37° 263° (W) 04:21:55 437.465
Oscar 19 04 Sep 04:24:13 04:27:18 16° 302° (WNW) 04:30:12 437.125/150
JAS-2 04 Sep 04:36:14 04:43:14 71° 288° (WNW) 04:49:20 435.910
VERMONT LUNAR 04 Sep 04:43:12 04:45:51 28° 180° (S) 04:48:28 437.305
KKS-1 04 Sep 04:43:58 04:46:05 13° 273° (W) 04:48:00 437.445
PHONESAT 2.4 04 Sep 04:58:24 05:00:43 17° 159° (SSE) 05:03:04 2401.200-2431.200
O/OREOS (USA 219) 04 Sep 05:06:34 05:10:53 39° 253° (WSW) 05:15:07 437.305
MOZHAYETS 4 04 Sep 05:19:38 05:23:50 33° 265° (W) 05:28:00
STRAND 1 04 Sep 05:27:58 05:29:48 12° 56° (NE) 05:31:52 437.568
ITAMSAT 1 04 Sep 05:31:02 05:34:00 15° 302° (WNW) 05:36:46 435.822/435.867
Gurwin Techsat 1B 04 Sep 05:34:50 05:37:02 12° 305° (NW) 05:39:00 435.225
GONETS M04 04 Sep 05:37:21 05:42:53 17° 308° (NW) 05:48:02
HORYU 2 04 Sep 05:41:46 05:46:07 51° 289° (WNW) 05:50:24 437.375
CUBESAT XI-V 04 Sep 05:45:59 05:50:21 46° 71° (ENE) 05:54:46 437.345
Cosmos 2499 04 Sep 05:49:27 05:57:36 42° 292° (WNW) 06:05:53 435.465 / 435.565
AO-7 04 Sep 05:56:35 06:04:49 69° 294° (WNW) 06:13:00 29.400- 29.500
Cubesat XI-IV 04 Sep 05:58:42 06:00:34 12° 85° (E) 06:02:45 437.490
PRISM 04 Sep 06:15:27 06:18:05 17° 63° (ENE) 06:20:49 437.425
VERMONT LUNAR 04 Sep 06:19:35 06:21:47 19° 196° (SSW) 06:23:58 437.305
JAS-2 04 Sep 06:22:59 06:27:01 16° 310° (NW) 06:30:35 435.910
PHONESAT 2.4 04 Sep 06:35:00 06:38:04 31° 176° (S) 06:41:09 2401.200-2431.200
CUTE-I 04 Sep 06:40:32 06:45:06 29° 94° (E) 06:49:44 437.470
AIST 1 04 Sep 06:51:22 06:52:25 11° 84° (E) 06:53:43
YUBILEINY 04 Sep 06:58:27 07:06:00 31° 64° (ENE) 07:13:42 435.215
STRAND 1 04 Sep 07:03:09 07:08:14 76° 74° (ENE) 07:13:21 437.568
SO-50 04 Sep 07:03:32 07:06:26 15° 26° (NNE) 07:09:24 436.795
CUBESAT XI-V 04 Sep 07:24:35 07:28:04 20° 269° (W) 07:31:27 437.345
Cubesat XI-IV 04 Sep 07:36:14 07:41:35 86° 101° (E) 07:46:57 437.490
BRITE-PL 04 Sep 07:43:49 07:48:27 27° 91° (E) 07:53:14 437.365/2234.400
PRISM 04 Sep 07:49:13 07:53:11 49° 260° (W) 07:57:10 437.425
AO-7 04 Sep 07:50:48 07:56:19 19° 315° (NW) 08:01:31 29.400- 29.500
DOVE 4 04 Sep 07:51:54 07:53:04 11° 82° (E) 07:54:35 437.250
Cosmos 2491 04 Sep 07:52:02 07:58:48 27° 82° (E) 08:05:51 435.465 / 435.565
GOMX 1 04 Sep 07:54:21 07:58:16 20° 88° (E) 08:02:19 467.674
ISS 04 Sep 08:03:16 08:06:16 34° 142° (SE) 08:09:17 145.825
PHONESAT 2.4 04 Sep 08:12:36 08:15:31 26° 192° (SSW) 08:18:25 2401.200-2431.200
Cosmos 2504 04 Sep 08:20:11 08:24:19 15° 50° (NE) 08:28:49 435.465 / 435.565
CUTE-I 04 Sep 08:20:20 08:25:21 42° 292° (WNW) 08:30:19 437.470
AIST 1 04 Sep 08:25:17 08:29:31 71° 280° (W) 08:33:48
CUTE 1.7 + AOD 2 04 Sep 08:42:45 08:45:38 18° 90° (E) 08:48:36 437.475
SO-50 04 Sep 08:43:12 08:48:06 55° 48° (NE) 08:52:53 436.795
STRAND 1 04 Sep 08:45:11 08:48:08 15° 273° (W) 08:50:49 437.568
CUSAT 1 04 Sep 08:47:31 08:52:04 17° 54° (NE) 08:57:09 437.405
PCSat 04 Sep 08:51:40 08:55:50 22° 38° (NE) 09:00:04 145.827
YUBILEINY 04 Sep 08:54:52 09:03:39 67° 266° (W) 09:12:17 435.215
CANX-2 04 Sep 08:56:49 09:00:28 28° 94° (E) 09:04:07 2200.000
HO-68 04 Sep 08:59:33 09:06:07 37° 96° (E) 09:12:43 435.675
SEEDS 04 Sep 09:11:25 09:15:03 28° 94° (E) 09:18:43 437.485
CUBEBUG 2 04 Sep 09:11:47 09:13:04 11° 84° (E) 09:14:37 437.445
Cubesat XI-IV 04 Sep 09:17:50 09:21:04 16° 302° (WNW) 09:24:07 437.490
BRITE-PL 04 Sep 09:21:49 09:27:11 51° 289° (WNW) 09:32:40 437.365/2234.400
DOVE 4 04 Sep 09:26:26 09:31:49 78° 103° (ESE) 09:37:04 437.250
COMPASS 1 04 Sep 09:26:50 09:30:36 32° 96° (E) 09:34:21 437.405
AUBIESAT-1 04 Sep 09:30:41 09:34:08 21° 59° (ENE) 09:37:36 437.475
GOMX 1 04 Sep 09:31:24 09:36:50 65° 287° (WNW) 09:42:16 467.674
AAUSAT CUBESAT 2 04 Sep 09:33:38 09:37:22 32° 95° (E) 09:41:07 437.432
Oscar 11 04 Sep 09:38:24 09:41:15 18° 90° (E) 09:44:13 145.826/435.025
M-CUBED/EXP-1 PRIME 04 Sep 09:39:08 09:43:11 29° 62° (ENE) 09:47:11 437.505
ISS 04 Sep 09:39:27 09:42:37 47° 340° (NNW) 09:45:48 145.825
DANDE 04 Sep 09:42:09 09:48:20 27° 63° (ENE) 09:55:18 436.750
CINEMA 3 04 Sep 09:44:20 09:49:14 53° 98° (E) 09:53:58 145.822/145.860
UNISAT 6 04 Sep 09:44:47 09:48:41 27° 66° (ENE) 09:52:39 437.425
Cosmos 2491 04 Sep 09:46:18 09:55:00 71° 282° (WNW) 10:03:43 435.465 / 435.565
PHONESAT 2.4 04 Sep 09:51:53 09:52:44 11° 207° (SSW) 09:53:30 2401.200-2431.200
DUCHIFAT 1 04 Sep 10:08:32 10:11:02 16° 63° (ENE) 10:13:42 145.980
POLYITAN 1 04 Sep 10:10:16 10:13:04 18° 63° (ENE) 10:16:01 437.675
Cosmos 2504 04 Sep 10:10:23 10:18:49 62° 76° (ENE) 10:26:43 435.465 / 435.565
TIGRISAT 04 Sep 10:11:05 10:15:31 44° 71° (ENE) 10:20:02 435.000
POPSAT HIP 1 04 Sep 10:11:19 10:14:05 18° 63° (ENE) 10:17:00 437.405
CUTE 1.7 + AOD 2 04 Sep 10:17:45 10:21:48 44° 289° (WNW) 10:25:48 437.475
SO-50 04 Sep 10:24:23 10:28:20 24° 247° (WSW) 10:32:06 436.795
NANOSAT C BR1 04 Sep 10:26:30 10:29:52 24° 66° (ENE) 10:33:20 145.865
CUSAT 1 04 Sep 10:28:22 10:36:13 64° 75° (ENE) 10:44:23 437.405
QB50P2 04 Sep 10:28:27 10:31:58 26° 67° (ENE) 10:35:35 145.880/145.840
ZACube-1 04 Sep 10:29:09 10:33:22 39° 96° (E) 10:37:29 437.345
ANTELSAT 04 Sep 10:29:35 10:34:16 69° 73° (ENE) 10:38:58 437.575/2403.000
CANX-2 04 Sep 10:32:41 10:36:22 29° 292° (WNW) 10:39:59 2200.000
FUNcube-1 04 Sep 10:32:43 10:36:57 41° 97° (E) 10:41:05 145.935
PCSat 04 Sep 10:34:29 10:39:57 82° 240° (WSW) 10:45:22 145.827
QB50P1 04 Sep 10:41:20 10:45:09 33° 69° (ENE) 10:49:02 145.935-145.965
HUMSAT D 04 Sep 10:42:37 10:45:50 21° 92° (E) 10:49:06 437.325/437.525
UWE-3 04 Sep 10:44:37 10:49:13 75° 102° (ESE) 10:53:40 435.000/436.395/437.385
CUBEBUG 2 04 Sep 10:45:49 10:50:32 84° 282° (WNW) 10:55:04 437.445
HO-68 04 Sep 10:47:09 10:54:04 50° 295° (WNW) 11:00:53 435.675
SEEDS 04 Sep 10:47:12 10:50:49 28° 292° (WNW) 10:54:20 437.485
YUBILEINY 04 Sep 10:54:44 10:58:53 14° 287° (WNW) 11:02:26 435.215
COMPASS 1 04 Sep 11:02:43 11:06:08 24° 293° (WNW) 11:09:28 437.405
AUBIESAT-1 04 Sep 11:03:52 11:08:31 55° 254° (WSW) 11:13:01 437.475
DELFI C3 04 Sep 11:05:10 11:09:12 85° 284° (WNW) 11:13:10 145.870
DOVE 4 04 Sep 11:05:24 11:08:57 18° 299° (WNW) 11:12:18 437.250
AAUSAT CUBESAT 2 04 Sep 11:09:28 11:12:51 24° 293° (WNW) 11:16:09 437.432
GOMX 1 04 Sep 11:12:06 11:14:03 12° 304° (NW) 11:15:44 467.674
DX 1 04 Sep 11:12:29 11:16:05 25° 94° (E) 11:19:43 434.975-435.025
M-CUBED/EXP-1 PRIME 04 Sep 11:13:18 11:17:48 39° 257° (WSW) 11:22:10 437.505
Oscar 11 04 Sep 11:13:34 11:17:45 48° 288° (WNW) 11:21:52 145.826/435.025
ISS 04 Sep 11:16:37 11:19:30 28° 0° (N) 11:22:24 145.825
50 SAT 04 Sep 11:16:52 11:19:42 20° 92° (E) 11:22:35 437.505
UKube-1 04 Sep 11:18:51 11:22:27 25° 94° (E) 11:26:07 .
UNISAT 6 04 Sep 11:20:53 11:25:18 39° 263° (W) 11:29:43 437.425
CINEMA 3 04 Sep 11:22:12 11:26:04 22° 297° (WNW) 11:29:44 145.822/145.860
DANDE 04 Sep 11:24:29 11:32:16 83° 261° (W) 11:40:51 436.750
BUGSAT 1 04 Sep 11:32:29 11:36:33 70° 74° (ENE) 11:40:42 437.445
CUBEBUG 1 04 Sep 11:39:01 11:42:13 20° 91° (E) 11:45:33 437.445
DUCHIFAT 1 04 Sep 11:42:13 11:46:25 59° 259° (W) 11:50:39 145.980
POLYITAN 1 04 Sep 11:44:25 11:48:36 53° 260° (W) 11:52:51 437.675
POPSAT HIP 1 04 Sep 11:45:25 11:49:35 52° 260° (W) 11:53:49 437.405
GONETS M04 04 Sep 11:47:17 11:52:09 16° 51° (NE) 11:57:28
Cosmos 2491 04 Sep 11:48:24 11:53:54 17° 308° (NW) 11:59:00 435.465 / 435.565
TIGRISAT 04 Sep 11:48:44 11:52:29 23° 268° (W) 11:56:09 435.000
AISAT 04 Sep 11:50:02 11:54:18 41° 98° (E) 11:58:33 437.250
ESTCUBE 1 04 Sep 11:51:27 11:55:28 32° 95° (E) 11:59:32 437.505/2401.250
NANOSAT C BR1 04 Sep 12:01:35 12:05:32 36° 263° (W) 12:09:29 145.865
Cosmos 2504 04 Sep 12:03:19 12:10:31 31° 277° (W) 12:17:11 435.465 / 435.565
QB50P2 04 Sep 12:03:52 12:07:45 33° 264° (W) 12:11:38 145.880/145.840
ZACube-1 04 Sep 12:05:54 12:09:31 24° 295° (WNW) 12:12:58 437.345
ANTELSAT 04 Sep 12:08:52 12:11:35 15° 273° (W) 12:14:06 437.575/2403.000
FUNcube-1 04 Sep 12:09:30 12:13:02 22° 295° (WNW) 12:16:24 145.935
CUSAT 1 04 Sep 12:11:28 12:18:27 34° 272° (W) 12:25:26 437.405
VELOX 1 04 Sep 12:16:56 12:21:26 74° 103° (ESE) 12:25:53 145.980
QB50P1 04 Sep 12:17:30 12:21:04 25° 267° (W) 12:24:36 145.935-145.965
HUMSAT D 04 Sep 12:17:47 12:21:43 37° 290° (WNW) 12:25:34 437.325/437.525
PCSat 04 Sep 12:20:15 12:22:37 13° 256° (WSW) 12:24:41 145.827
UWE-3 04 Sep 12:22:38 12:25:10 14° 300° (WNW) 12:27:29 435.000/436.395/437.385
CUBEBUG 2 04 Sep 12:24:43 12:26:28 12° 302° (WNW) 12:28:00 437.445
Oscar 19 04 Sep 12:24:49 12:28:49 24° 63° (ENE) 12:32:56 437.125/150
HO-68 04 Sep 12:37:36 12:40:16 12° 316° (NW) 12:42:34 435.675
DX 1 04 Sep 12:48:23 12:52:24 36° 292° (WNW) 12:56:24 434.975-435.025
50 SAT 04 Sep 12:50:49 12:54:21 34° 290° (WNW) 12:57:49 437.505
ISS 04 Sep 12:53:12 12:56:23 49° 20° (NNE) 12:59:33 145.825
SPROUT 04 Sep 12:54:23 12:58:27 38° 97° (E) 13:02:31 437.525
UKube-1 04 Sep 12:54:42 12:58:38 34° 292° (WNW) 13:02:32 .
JAS-2 04 Sep 13:07:02 13:11:55 19° 53° (NE) 13:17:02 435.910
DANDE 04 Sep 13:09:08 13:14:42 20° 277° (W) 13:20:12 436.750
BUGSAT 1 04 Sep 13:11:07 13:12:35 11° 273° (W) 13:13:51 437.445
CUBEBUG 1 04 Sep 13:14:35 13:18:50 45° 289° (WNW) 13:23:02 437.445
AO-7 04 Sep 13:18:41 13:22:36 15° 40° (NE) 13:26:50 29.400- 29.500
AISAT 04 Sep 13:27:03 13:30:39 23° 295° (WNW) 13:34:10 437.250
ESTCUBE 1 04 Sep 13:28:23 13:32:18 29° 293° (WNW) 13:36:09 437.505/2401.250
ITAMSAT 1 04 Sep 13:32:18 13:36:26 26° 63° (ENE) 13:40:41 435.822/435.867
Gurwin Techsat 1B 04 Sep 13:37:03 13:41:43 33° 66° (ENE) 13:46:29 435.225
SWISSCUBE 04 Sep 13:38:21 13:40:28 13° 87° (E) 13:42:50 437.505
TISAT 1 04 Sep 13:42:19 13:46:37 70° 102° (ESE) 13:50:52 437.305
GONETS M04 04 Sep 13:42:23 13:51:10 67° 77° (ENE) 13:59:58
Cosmos 2499 04 Sep 13:45:09 13:51:30 23° 57° (ENE) 13:57:49 435.465 / 435.565
VELOX 1 04 Sep 13:54:59 13:57:27 14° 300° (WNW) 13:59:45 145.980
RS-15 04 Sep 13:56:40 14:01:22 15° 97° (E) 14:07:01 29.354- 29.394
Oscar 19 04 Sep 14:02:48 14:07:51 53° 260° (W) 14:12:58 437.125/150
BEESAT 3 04 Sep 14:13:12 14:16:59 39° 119° (ESE) 14:20:50 437.485
ITUPSAT 1 04 Sep 14:17:27 14:21:33 28° 94° (E) 14:25:41 437.325
ISS 04 Sep 14:29:45 14:32:42 32° 218° (SW) 14:35:38 145.825
SPROUT 04 Sep 14:30:52 14:34:21 23° 294° (WNW) 14:37:44 437.525
BEESAT 2 04 Sep 14:31:15 14:35:10 45° 120° (ESE) 14:39:08 435.950
BEESAT 04 Sep 14:47:38 14:52:20 56° 101° (E) 14:57:01 436.000
JAS-2 04 Sep 14:48:04 14:55:49 71° 72° (ENE) 15:03:35 435.910
KKS-1 04 Sep 14:55:15 14:56:43 12° 86° (E) 14:58:26 437.445
AO-7 04 Sep 15:05:42 15:13:38 52° 62° (ENE) 15:21:37 29.400- 29.500
HORYU 2 04 Sep 15:06:34 15:10:06 24° 65° (ENE) 15:13:43 437.375
ITAMSAT 1 04 Sep 15:10:43 15:15:42 48° 261° (W) 15:20:43 435.822/435.867
SWISSCUBE 04 Sep 15:14:12 15:18:58 76° 287° (WNW) 15:23:43 437.505
Gurwin Techsat 1B 04 Sep 15:16:46 15:21:41 37° 264° (W) 15:26:34 435.225
TISAT 1 04 Sep 15:19:35 15:21:52 14° 299° (WNW) 15:23:59 437.305
AIST 2 04 Sep 15:35:27 15:39:28 43° 119° (ESE) 15:43:32 435.215
Cosmos 2499 04 Sep 15:37:25 15:46:08 89° 261° (W) 15:54:11 435.465 / 435.565
GONETS M04 04 Sep 15:40:05 15:47:27 30° 277° (W) 15:54:35
BEESAT 3 04 Sep 15:51:29 15:55:01 27° 318° (NW) 15:58:32 437.485
ITUPSAT 1 04 Sep 15:55:08 15:59:30 36° 292° (WNW) 16:03:49 437.325
STARS 04 Sep 16:00:39 16:04:40 32° 96° (E) 16:08:40 437.465
RS-15 04 Sep 16:00:54 16:11:35 65° 118° (ESE) 16:22:48 29.354- 29.394
BEESAT 2 04 Sep 16:09:56 16:13:23 25° 319° (NW) 16:16:50 435.950
BEESAT 04 Sep 16:26:21 16:29:49 20° 298° (WNW) 16:33:09 436.000
KKS-1 04 Sep 16:29:29 16:34:01 79° 284° (WNW) 16:38:29 437.445
CUTE-I 04 Sep 16:30:25 16:30:45 10° 53° (NE) 16:31:22 437.470
JAS-2 04 Sep 16:34:52 16:41:28 28° 271° (W) 16:47:54 435.910
HORYU 2 04 Sep 16:42:16 16:46:32 41° 262° (W) 16:50:48 437.375
SWISSCUBE 04 Sep 16:54:38 16:56:05 11° 303° (WNW) 16:57:19 437.505
AO-7 04 Sep 16:58:49 17:06:39 42° 262° (W) 17:14:24 29.400- 29.500
MOZHAYETS 4 04 Sep 17:11:43 17:16:08 47° 98° (E) 17:20:32
AIST 2 04 Sep 17:14:32 17:18:12 27° 319° (NW) 17:21:50 435.215
Cubesat XI-IV 04 Sep 17:22:02 17:26:24 27° 64° (ENE) 17:30:53 437.490
Cosmos 2499 04 Sep 17:32:14 17:38:07 20° 283° (WNW) 17:43:24 435.465 / 435.565
STARS 04 Sep 17:37:11 17:41:02 28° 293° (WNW) 17:44:47 437.465
O/OREOS (USA 219) 04 Sep 17:43:17 17:46:16 18° 101° (E) 17:49:23 437.305
Cosmos 2491 04 Sep 17:58:22 18:03:11 16° 51° (NE) 18:08:28 435.465 / 435.565
CUTE-I 04 Sep 18:04:40 18:09:52 60° 71° (ENE) 18:15:07 437.470
KKS-1 04 Sep 18:08:54 18:09:55 11° 302° (WNW) 18:10:43 437.445
RS-15 04 Sep 18:13:57 18:24:38 49° 325° (NW) 18:35:44 29.354- 29.394
AIST 1 04 Sep 18:29:52 18:33:52 35° 74° (ENE) 18:37:53
MOZHAYETS 4 04 Sep 18:49:37 18:53:05 21° 296° (WNW) 18:56:26
BRITE-PL 04 Sep 18:57:31 19:01:31 31° 66° (ENE) 19:05:53 437.365/2234.400
DOVE 4 04 Sep 18:59:17 19:01:50 15° 58° (ENE) 19:04:38 437.250
Cubesat XI-IV 04 Sep 19:01:11 19:06:18 46° 261° (W) 19:11:26 437.490
GOMX 1 04 Sep 19:05:04 19:08:49 24° 64° (ENE) 19:12:52 467.674
STRAND 1 04 Sep 19:11:57 19:15:43 21° 91° (E) 19:19:38 437.568
CUBESAT XI-V 04 Sep 19:17:04 19:21:45 83° 103° (ESE) 19:26:25 437.345
O/OREOS (USA 219) 04 Sep 19:20:50 19:25:18 54° 299° (WNW) 19:29:50 437.305
PRISM 04 Sep 19:29:31 19:32:20 18° 92° (E) 19:35:17 437.425
HO-68 04 Sep 19:30:52 19:37:14 37° 61° (ENE) 19:43:44 435.675
CUTE 1.7 + AOD 2 04 Sep 19:38:07 19:41:08 19° 65° (ENE) 19:44:13 437.475
CUTE-I 04 Sep 19:46:28 19:50:25 20° 270° (W) 19:54:13 437.470
CANX-2 04 Sep 19:52:03 19:55:43 28° 68° (ENE) 19:59:26 2200.000
Cosmos 2491 04 Sep 19:53:29 20:02:14 67° 77° (ENE) 20:10:59 435.465 / 435.565
YUBILEINY 04 Sep 20:03:20 20:10:36 32° 83° (E) 20:18:09 435.215
SEEDS 04 Sep 20:05:45 20:09:22 28° 68° (ENE) 20:13:02 437.485
AIST 1 04 Sep 20:07:54 20:11:20 23° 271° (W) 20:14:41
UWE-3 04 Sep 20:10:52 20:12:18 11° 58° (ENE) 20:13:57 435.000/436.395/437.385
CUBEBUG 2 04 Sep 20:11:46 20:14:21 15° 61° (ENE) 20:17:07 437.445
COMPASS 1 04 Sep 20:20:15 20:23:58 31° 69° (ENE) 20:27:42 437.405
AAUSAT CUBESAT 2 04 Sep 20:26:36 20:30:16 31° 69° (ENE) 20:34:00 437.432
RS-15 04 Sep 20:30:59 20:40:38 30° 357° (N) 20:50:39 29.354- 29.394
DOVE 4 04 Sep 20:34:05 20:38:51 85° 257° (WSW) 20:43:58 437.250
Oscar 11 04 Sep 20:35:39 20:38:45 20° 65° (ENE) 20:41:58 145.826/435.025
BRITE-PL 04 Sep 20:36:00 20:40:03 31° 267° (W) 20:44:22 437.365/2234.400
GOMX 1 04 Sep 20:42:11 20:46:40 45° 264° (W) 20:51:29 467.674
CINEMA 3 04 Sep 20:47:51 20:52:36 62° 72° (ENE) 20:57:32 145.822/145.860
STRAND 1 04 Sep 20:50:19 20:55:18 54° 290° (WNW) 21:00:16 437.568
BEESAT 3 04 Sep 20:52:51 20:54:15 12° 28° (NNE) 20:55:44 437.485
CUBESAT XI-V 04 Sep 20:56:16 20:58:36 13° 300° (WNW) 21:00:45 437.345
PRISM 04 Sep 21:04:05 21:08:00 43° 290° (WNW) 21:11:55 437.425
BEESAT 2 04 Sep 21:11:12 21:13:01 13° 30° (NNE) 21:14:56 435.950
CUTE 1.7 + AOD 2 04 Sep 21:12:37 21:16:45 46° 262° (W) 21:20:53 437.475
HO-68 04 Sep 21:17:51 21:24:48 51° 260° (W) 21:31:48 435.675
ZACube-1 04 Sep 21:26:58 21:31:18 43° 70° (ENE) 21:35:41 437.345
CANX-2 04 Sep 21:27:49 21:31:36 29° 265° (W) 21:35:21 2200.000
FUNcube-1 04 Sep 21:30:16 21:34:37 45° 71° (ENE) 21:39:01 145.935
HUMSAT D 04 Sep 21:36:36 21:39:56 23° 66° (ENE) 21:43:21 437.325/437.525
SEEDS 04 Sep 21:41:23 21:45:07 29° 265° (W) 21:48:48 437.485
UWE-3 04 Sep 21:43:26 21:48:06 81° 76° (ENE) 21:52:50 435.000/436.395/437.385
VELOX 1 04 Sep 21:43:50 21:45:09 11° 59° (ENE) 21:46:40 145.980
CUBEBUG 2 04 Sep 21:45:44 21:50:27 78° 259° (W) 21:55:16 437.445
Cosmos 2491 04 Sep 21:51:13 21:58:30 30° 277° (W) 22:05:34 435.465 / 435.565
DELFI C3 04 Sep 21:54:07 21:58:10 80° 77° (ENE) 22:02:13 145.870
COMPASS 1 04 Sep 21:56:06 21:59:39 25° 266° (W) 22:03:09 437.405
YUBILEINY 04 Sep 21:58:12 22:06:57 64° 284° (WNW) 22:15:44 435.215
AAUSAT CUBESAT 2 04 Sep 22:02:22 22:05:54 25° 266° (W) 22:09:22 437.432
50 SAT 04 Sep 22:02:57 22:05:31 17° 65° (ENE) 22:08:12 437.505
DX 1 04 Sep 22:10:23 22:14:08 30° 67° (ENE) 22:17:57 434.975-435.025
Oscar 11 04 Sep 22:10:27 22:14:39 46° 262° (W) 22:18:51 145.826/435.025
UKube-1 04 Sep 22:15:54 22:19:39 30° 67° (ENE) 22:23:28 .
DOVE 4 04 Sep 22:16:20 22:17:36 11° 278° (W) 22:18:33 437.250
AIST 2 04 Sep 22:17:28 22:19:28 13° 29° (NNE) 22:21:34 435.215
ANTELSAT 04 Sep 22:21:23 22:23:02 12° 86° (E) 22:24:54 437.575/2403.000
CINEMA 3 04 Sep 22:27:01 22:30:17 17° 273° (W) 22:33:28 145.822/145.860
BEESAT 3 04 Sep 22:29:07 22:33:06 53° 49° (NE) 22:37:01 437.485
CUBEBUG 1 04 Sep 22:37:37 22:40:59 23° 65° (ENE) 22:44:27 437.445
Cosmos 2504 04 Sep 22:42:43 22:50:23 44° 88° (E) 22:58:27 435.465 / 435.565
RS-15 04 Sep 22:46:11 22:57:01 42° 30° (NNE) 23:08:24 29.354- 29.394
BEESAT 2 04 Sep 22:47:51 22:51:55 62° 51° (NE) 22:55:54 435.950
AISAT 04 Sep 22:49:56 22:54:11 49° 71° (ENE) 22:58:30 437.250
ESTCUBE 1 04 Sep 22:53:21 22:57:29 39° 70° (ENE) 23:01:42 437.505/2401.250
M-CUBED/EXP-1 PRIME 04 Sep 22:54:56 22:55:25 10° 91° (E) 22:56:08 437.505
DANDE 04 Sep 23:00:25 23:01:28 11° 77° (ENE) 23:02:51 436.750
ZACube-1 04 Sep 23:04:12 23:07:51 22° 269° (W) 23:11:25 437.345
FUNcube-1 04 Sep 23:07:37 23:11:09 21° 269° (W) 23:14:38 145.935
UNISAT 6 04 Sep 23:10:21 23:14:35 37° 96° (E) 23:18:43 437.425
HUMSAT D 04 Sep 23:11:22 23:15:27 39° 263° (W) 23:19:32 437.325/437.525
VELOX 1 04 Sep 23:16:38 23:21:03 88° 76° (ENE) 23:25:30 145.980
UWE-3 04 Sep 23:23:15 23:25:18 12° 275° (W) 23:27:06 435.000/436.395/437.385
DUCHIFAT 1 04 Sep 23:25:09 23:28:08 19° 91° (E) 23:31:14 145.980
POLYITAN 1 04 Sep 23:27:51 23:31:08 21° 92° (E) 23:34:29 437.675
POPSAT HIP 1 04 Sep 23:28:37 23:31:53 21° 92° (E) 23:35:13 437.405
50 SAT 04 Sep 23:35:56 23:39:44 45° 261° (W) 23:43:33 437.505
TIGRISAT 04 Sep 23:36:52 23:41:26 68° 101° (ESE) 23:45:51 435.000
CUSAT 1 04 Sep 23:38:04 23:42:19 46° 92° (E) 23:48:00 437.405
NANOSAT C BR1 04 Sep 23:43:48 23:47:35 30° 95° (E) 23:51:22 145.865
QB50P2 04 Sep 23:46:22 23:50:16 33° 96° (E) 23:54:10 145.880/145.840
DX 1 04 Sep 23:46:32 23:50:21 29° 265° (W) 23:54:09 434.975-435.025
SPROUT 04 Sep 23:50:42 23:54:43 40° 70° (ENE) 23:58:47 437.525
UKube-1 04 Sep 23:52:00 23:55:46 28° 265° (W) 23:59:31 .
AIST 2 04 Sep 23:54:44 23:58:55 62° 51° (NE) 00:03:00 435.215
ANTELSAT 04 Sep 23:55:55 00:00:30 76° 285° (WNW) 00:04:55 437.575/2403.000
QB50P1 04 Sep 23:59:13 00:03:20 43° 98° (E) 00:07:27 145.935-145.965
YUBILEINY 05 Sep 00:01:06 00:06:06 15° 310° (NW) 00:10:39 435.215
BEESAT 3 05 Sep 00:07:57 00:10:40 17° 247° (WSW) 00:13:15 437.485
CUBEBUG 1 05 Sep 00:13:04 00:17:08 39° 263° (W) 00:21:14 437.445
AUBIESAT-1 05 Sep 00:17:06 00:20:59 81° 107° (ESE) 00:24:32 437.475
BEESAT 05 Sep 00:22:11 00:23:57 12° 58° (ENE) 00:25:56 436.000
M-CUBED/EXP-1 PRIME 05 Sep 00:26:58 00:30:53 65° 292° (WNW) 00:34:27 437.505
BEESAT 2 05 Sep 00:27:07 00:29:31 15° 248° (WSW) 00:31:46 435.950
AISAT 05 Sep 00:27:57 00:31:05 18° 270° (W) 00:34:06 437.250
ESTCUBE 1 05 Sep 00:30:56 00:34:32 23° 267° (W) 00:38:04 437.505/2401.250
Cosmos 2504 05 Sep 00:34:38 00:42:37 47° 289° (WNW) 00:50:51 435.465 / 435.565
TISAT 1 05 Sep 00:36:26 00:40:37 71° 74° (ENE) 00:44:53 437.305
DANDE 05 Sep 00:39:18 00:43:18 77° 283° (WNW) 00:48:48 436.750
SO-50 05 Sep 00:39:35 00:44:22 67° 123° (ESE) 00:49:17 436.795
SWISSCUBE 05 Sep 00:46:47 00:50:19 22° 63° (ENE) 00:53:58 437.505
BUGSAT 1 05 Sep 00:47:20 00:51:38 87° 103° (ESE) 00:55:54 437.445
UNISAT 6 05 Sep 00:47:26 00:51:12 25° 294° (WNW) 00:54:48 437.425
GONETS M04 05 Sep 00:55:24 00:59:16 14° 74° (ENE) 01:03:44
DUCHIFAT 1 05 Sep 01:00:05 01:04:12 45° 289° (WNW) 01:08:15 145.980
POLYITAN 1 05 Sep 01:03:09 01:07:12 39° 290° (WNW) 01:11:12 437.675
POPSAT HIP 1 05 Sep 01:03:52 01:07:55 40° 290° (WNW) 01:11:55 437.405
TIGRISAT 05 Sep 01:14:55 01:17:39 16° 299° (WNW) 01:20:12 435.000
